Temp
8 8 7 7 6 6 6 5 5 6 6 6 6 6 6 6 6 5 5 5 5 4
8 8 7 7 7 6 6 6 6 6 6 6 6 6 6 5 5 5 5 5 4 4
8 7 7 7 6 6 6 6 5 5 6 6 6 6 5 5 5 5 4 4 4 4
7 7 7 7 6 6 6 6 6 5 5 5 5 5 5 5 4 4 4 4 4 4
7 7 7 7 7 7 7 6 6 6 5 5 5 5 4 4 4 4 4 4 4 4
7 7 7 6 6 6 6 6 6 6 5 5 5 5 4 4 4 4 4 4 4 4
7 7 6 6 6 6 6 6 6 6 5 5 5 5 5 4 4 4 4 4 4 4
6 6 6 6 6 5 5 6 5 5 5 5 5 5 5 4 4 4 4 4 4 4
6 6 6 5 5 5 5 5 5 5 5 5 4 4 4 4 4 4 4 4 4 3
5 5 5 5 5 4 4 4 4 4 4 4 4 3 3 3 3 3 3 3 3 3
5 5 4 4 4 3 3 3 3 3 3 3 3 3 3 3 3 3 3 3 3 3
4 4 4 3 3 3 2 2 2 2 2 2 2 2 2 2 2 2 2 2 2 2
3 3 3 2 2 2 2 1 1 2 1 1 2 2 2 2 1 2 2 2 2 2
3 2 2 2 1 1 1 1 1 2 2 2 2 2 1 1 1 1 1 1 1 1
Height
1491 1489 1486 1484 1483 1482 1481 1480 1479 1478 1477 1475 1474 1473 1472 1470 1469 1468 1467 1467 1466 1466
1490 1487 1485 1483 1481 1479 1478 1477 1476 1475 1474 1472 1471 1470 1469 1468 1467 1466 1465 1465 1464 1464
1488 1486 1483 1481 1479 1477 1476 1474 1473 1472 1471 1470 1469 1468 1466 1465 1464 1463 1462 1461 1461 1460
1486 1484 1482 1479 1477 1475 1474 1472 1471 1470 1469 1468 1467 1466 1464 1463 1462 1461 1459 1458 1458 1457
1483 1481 1479 1477 1475 1473 1472 1470 1469 1467 1466 1465 1464 1463 1462 1461 1460 1458 1457 1456 1454 1453
1479 1477 1475 1473 1472 1470 1469 1467 1466 1464 1463 1462 1461 1460 1459 1458 1456 1455 1454 1452 1451 1450
1476 1474 1472 1470 1468 1467 1465 1463 1462 1461 1460 1459 1458 1457 1456 1454 1453 1451 1450 1449 1447 1445
1472 1470 1468 1466 1465 1463 1462 1460 1458 1457 1456 1455 1454 1453 1452 1451 1449 1448 1446 1444 1443 1441
1467 1466 1465 1463 1461 1459 1458 1456 1455 1454 1453 1452 1451 1449 1448 1445 1444 1443 1441 1440 1438 1437
1462 1461 1460 1458 1456 1455 1454 1452 1451 1450 1449 1448 1447 1445 1444 1442 1440 1438 1436 1435 1433 1432
1456 1455 1454 1453 1452 1451 1449 1448 1447 1445 1444 1443 1442 1440 1438 1436 1435 1434 1432 1430 1429 1427
1450 1450 1448 1447 1447 1446 1444 1443 1442 1439 1438 1437 1436 1435 1433 1430 1429 1428 1426 1424 1423 1422
1444 1444 1444 1443 1442 1442 1440 1438 1437 1434 1433 1431 1429 1428 1426 1425 1422 1420 1419 1418 1417 1416
1440 1438 1437 1437 1436 1435 1433 1431 1429 1427 1426 1425 1423 1420 1419 1418 1416 1414 1411 1409 1408 1407
Wind_Speed
14 14 13 11 11 11 10 11 13 14 13 11 11 11 10 9 9 9 8 8 7 8
13 14 13 12 11 10 10 11 12 13 12 12 12 12 11 10 9 9 9 9 9 10
14 14 14 13 11 11 10 11 12 13 12 12 12 12 12 11 10 10 10 10 10 11
15 15 14 13 12 12 11 11 11 12 12 12 12 12 13 13 12 12 12 12 12 12
16 16 15 14 14 13 12 12 12 12 12 12 12 12 13 13 13 14 14 14 14 14
15 15 15 15 14 14 13 12 12 12 13 13 13 14 14 15 15 15 16 16 16 16
16 17 17 16 15 15 14 13 13 13 13 13 13 13 14 15 15 16 16 16 16 16
17 17 18 16 15 15 14 14 13 13 12 13 13 14 13 15 16 17 17 16 15 15
18 18 18 18 17 16 15 14 13 14 15 15 14 14 15 15 16 16 17 17 16 16
19 19 19 19 18 17 16 15 16 17 18 18 17 16 16 17 18 17 18 18 17 16
19 19 19 19 18 18 18 18 18 19 20 19 17 17 18 19 20 21 20 20 19 19
18 19 19 19 18 17 18 21 23 22 21 21 21 20 19 20 20 21 21 21 21 22
18 20 20 19 17 20 24 24 21 20 19 19 19 16 17 19 21 23 24 25 25 25
20 20 19 19 21 24 23 22 23 22 22 23 23 22 22 21 24 26 28 29 30 29
Wind_Direction
339 340 340 330 315 307 298 286 287 296 302 307 312 314 315 316 316 315 315 312 301 282
338 341 342 338 326 315 306 301 300 302 303 304 306 306 308 308 308 304 306 305 302 296
334 336 339 339 336 325 317 309 304 304 303 302 301 302 302 305 304 302 302 300 297 298
336 331 329 327 326 325 320 311 308 306 306 306 302 300 299 300 300 298 299 299 295 295
334 328 321 318 319 318 316 315 312 309 306 304 303 301 299 296 295 293 294 296 294 295
324 323 315 309 310 313 314 316 313 310 308 306 304 301 298 297 295 293 295 297 297 297
317 321 316 310 307 308 309 310 310 310 309 308 307 305 302 299 299 298 298 296 294 293
304 309 308 305 301 301 303 306 309 312 311 312 312 310 313 310 308 308 308 306 304 301
291 299 304 304 300 298 298 301 306 310 311 312 312 310 308 305 305 306 307 307 306 304
283 293 296 294 291 293 294 297 302 303 302 301 301 304 302 301 301 301 301 302 302 302
277 287 291 289 290 291 292 295 301 304 303 301 304 304 304 302 302 301 301 300 301 300
275 284 292 288 289 292 295 299 301 300 298 299 302 304 304 304 302 300 301 302 302 301
275 284 286 286 289 297 300 300 302 303 298 298 301 302 302 302 299 296 298 296 293 292
274 279 282 284 292 298 295 293 296 298 301 302 304 306 306 304 299 300 299 297 297 296